Change the Weather History Date:

Thursday, November 15, 2012

  Actual Average Record
Temperature  
Mean Temperature 22 °F -  
Max Temperature 26 °F - - ()
Min Temperature 18 °F - - ()
Degree Days  
Heating Degree Days 43    
Moisture  
Dew Point 20 °F    
Average Humidity 91    
Maximum Humidity 95    
Minimum Humidity 84    
Precipitation  
Precipitation 0.00 in - - ()
Sea Level Pressure  
Sea Level Pressure 30.27 in    
Wind  
Wind Speed 10 mph ()    
Max Wind Speed 16 mph    
Max Gust Speed -    
T = Trace of Precipitation, MM = Missing Value Source: Averaged Metar Reports

Daily Weather History Graph

Daily Weather History Graph

Search for Another Location

Airport or City:

Trip Planner

Search our weather history database for the weather conditions in past years. The results will help you decide how hot, cold, wet, or windy it might be!

Date:

Astronomy

Nov. 15, 2012 Rise Set
Actual Time 8:04 AM MST 4:55 PM MST
Civil Twilight 7:27 AM MST 5:32 PM MST
Nautical Twilight 6:46 AM MST 6:13 PM MST
Astronomical Twilight 6:07 AM MST 6:52 PM MST
Moon 10:13 AM MST (11/15) 6:43 PM MST (11/15)
Length of Visible Light 10h 05m
Length of Day
8h 51m
Waxing Crescent, 5% of the Moon is Illuminated
Nov 15
Waxing Crescent
Nov 20
First Quarter
Nov 28
Full
Dec 6
Last Quarter
Dec 13
New

Hourly Weather History & Observations

Time (MST) Temp. Windchill Dew Point Humidity Pressure Visibility Wind Dir Wind Speed Gust Speed Precip Events Conditions
12:00 AM 24.3 °F 14.6 °F 22.8 °F 94% 30.34 in - WSW 9.2 mph - N/A   Unknown
1:00 AM 23.2 °F 12.0 °F 21.7 °F 94% 30.34 in - WSW 11.5 mph - N/A   Unknown
2:00 AM 22.1 °F 10.0 °F 20.8 °F 95% 30.35 in - WSW 12.7 mph - N/A   Unknown
3:00 AM 20.8 °F 9.0 °F 19.6 °F 95% 30.36 in - WSW 11.5 mph - N/A   Unknown
4:00 AM 19.9 °F 7.9 °F 18.7 °F 95% 30.36 in - WSW 11.5 mph - N/A   Unknown
5:00 AM 20 °F - 18 °F 90% 30.37 in - WSW 12.7 mph - -  
5:00 AM 19.6 °F 6.8 °F 18.3 °F 95% 30.37 in - WSW 12.7 mph - N/A   Unknown
7:00 AM 18.9 °F 5.3 °F 17.4 °F 94% 30.36 in - WSW 13.8 mph - N/A   Unknown
8:00 AM 18.0 °F 3.1 °F 16.5 °F 94% 30.36 in - WSW 16.1 mph - N/A   Unknown
9:00 AM 18.9 °F 6.5 °F 17.6 °F 95% 30.37 in - WSW 11.5 mph - N/A   Unknown
10:00 AM 18.5 °F 7.5 °F 17.1 °F 94% 30.36 in - SW 9.2 mph - N/A   Unknown
11:00 AM 22 °F - 21 °F 92% 30.33 in - WSW 10.4 mph - -  
11:00 AM 22.3 °F 11.5 °F 20.7 °F 93% 30.33 in - WSW 10.4 mph - N/A   Unknown
12:00 PM 23.4 °F - 19.9 °F 87% 30.31 in - North - - N/A   Unknown
1:00 PM 25.3 °F 13.1 °F 21.9 °F 87% 30.28 in - WSW 15.0 mph - N/A   Unknown
2:00 PM 25.7 °F 14.0 °F 21.7 °F 85% 30.25 in - West 13.8 mph - N/A   Unknown
4:00 PM 26.2 °F 16.4 °F 22.6 °F 86% 30.22 in - WSW 10.4 mph - N/A   Unknown
5:00 PM 25 °F - 22 °F 84% 30.20 in - West 10.4 mph - -  
5:00 PM 25.3 °F 15.3 °F 22.1 °F 87% 30.20 in - West 10.4 mph - N/A   Unknown
6:00 PM 24.8 °F 15.3 °F 22.1 °F 89% 30.17 in - West 9.2 mph - N/A   Unknown
7:00 PM 23.2 °F 10.8 °F 20.8 °F 91% 30.18 in - WSW 13.8 mph - N/A   Unknown
8:00 PM 21.9 °F 11.7 °F 19.9 °F 92% 30.16 in - WSW 9.2 mph - N/A   Unknown
9:00 PM 21.6 °F 8.8 °F 19.8 °F 93% 30.16 in - WSW 13.8 mph - N/A   Unknown
10:00 PM 20.7 °F 8.8 °F 18.7 °F 92% 30.14 in - WSW 11.5 mph - N/A   Unknown
11:00 PM 22 °F - 20 °F 89% 30.11 in - West 11.5 mph - -  
11:00 PM 22.3 °F 10.8 °F 20.1 °F 91% 30.11 in - West 11.5 mph - N/A   Unknown